Location: Unspecified
(48.2082°N, 0.0000°E)
Time: 19:32:01
(UTC+00:00)

Transit 4A - Pass Details

Date: 23 June 2019
Orbit: 862 x 982 km, 66.8° (Epoch: 18 July)

Event Time Altitude Azimuth Distance (km) Brightness Sun altitude
Rises 10:58:19 0° 279° (W) 3,667 10.8 62.2°
Reaches altitude 10° 11:01:47 10° 297° (WNW) 2,734 10.2 62.5°
Maximum altitude 11:06:05 18° 340° (NNW) 2,195 9.8 62.8°
Drops below altitude 10° 11:10:25 10° 22° (NNE) 2,746 10.3 63.2°
Sets 11:13:56 0° 41° (NE) 3,690 10.9 63.4°
